Regional Weather Roundup
Issued by NWS

Home | Current Version | Previous Version | Graphics & Text | Print | Product List | Glossary On
Versions: 1 2 3 4 5 6 7 8 9 10 11 12 13 14 15 16 17 18 19 20 21 22 23 24 25 26 27 28 29 30 31 32 33 34 35 36 37 38 39 40 41 42 43 44 45 46 47 48 49 50
000
ASUS43 KMPX 251501
RWRMN
WEATHER ROUNDUP FOR MINNESOTA
NATIONAL WEATHER SERVICE TWIN CITIES/CHANHASSEN MN
1000 AM CDT TUE JUL 25 2017


NOTE: "FAIR" INDICATES FEW OR NO CLOUDS BELOW 12,000 FEET WITH NO
SIGNIFICANT WEATHER AND/OR OBSTRUCTIONS TO VISIBILITY. N/A MEANS
CURRENT SKY AND/OR WEATHER CONDITIONS ARE NOT AVAILABLE.

MNZ060>063-068>070-251600-
   Twin Cities Metro

CITY           SKY/WX    TMP DP  RH WIND       PRES   REMARKS
TWIN CITIES    CLOUDY    72  65  78 S17G25    29.99F
ST PAUL        CLOUDY    69  66  90 SE14      30.00F
CRYSTAL        CLOUDY    74  63  68 S18G25    29.97F
BLAINE         PTSUNNY   75  66  73 SE14      29.98F
LAKEVILLE      CLOUDY    68  66  94 S14G21    30.00F
EDEN PRAIRIE   CLOUDY    74  65  73 S14G25    29.97F
SOUTH ST PAUL  CLOUDY    69  65  88 SE10      30.00F
LAKE ELMO      PTSUNNY   68  63  83 SE10G17   30.02F
$$
MNZ001>005-007-008-013>017-022>024-027-028-251600-
   Northwest Minnesota

CITY           SKY/WX    TMP DP  RH WIND       PRES   REMARKS
BEMIDJI        PTSUNNY   71  64  80 S10       29.93F
HALLOCK        CLOUDY    73  68  83 S13       29.85R
ROSEAU         CLOUDY    72  64  78 S13       29.86F
WARROAD        PTSUNNY   68  64  88 S6        29.89F
CROOKSTON      MOSUNNY   72  66  83 SW9       29.90R
FOSSTON        PTSUNNY   73  64  73 S12G17    29.92R
DETROIT LAKES  PTSUNNY   72  64  78 S10       29.93S
MOORHEAD       MOSUNNY   73  64  73 S7        29.90S
PARK RAPIDS    CLOUDY    70  64  81 S9        29.95R
MAHNOMEN       PTSUNNY   71  65  81 S10       29.92R
$$
MNZ006-009>011-018-025>026-251600-
   North Central Minnesota

CITY           SKY/WX    TMP DP  RH WIND       PRES   REMARKS
BAUDETTE       CLOUDY    73  66  78 S8        29.89F
FLAG ISLAND    LGT RAIN  68  64  88 S6        29.83F
INTL FALLS     CLOUDY    71  63  75 S8        29.93F
WASKISH        PTSUNNY   73  66  78 S7        29.91F
BIG FORK       MOSUNNY   73  64  73 S6        29.96F
LONGVILLE      CLOUDY    70  64  83 S7        29.96R
GRAND RAPIDS   PTSUNNY   71  64  78 S12       29.98F
CRANE LAKE     MOSUNNY   68  63  83 S7        30.01S
ORR            CLOUDY    72  59  64 S7        29.96F
COOK           MOSUNNY   70  63  78 S7        30.00F
WALKER         PTSUNNY   70  64  80 S9        29.93F
$$
MNZ012-019>021-037-251600-
   Northeast Minnesota

CITY           SKY/WX    TMP DP  RH WIND       PRES   REMARKS
DULUTH         CLOUDY    67  62  84 SE10      30.03R
ELY            PTSUNNY   70  61  73 S10G17    30.03S
HIBBING          N/A     70  63  78 SE10G18   29.99F
EVELETH        CLOUDY    72  62  68 S10G16    30.01F
DULUTH HARBOR  PTSUNNY   64  61  88 NE15      30.02S
TWO HARBORS    MOSUNNY   72  63  73 S6        30.03S
GRAND MARAIS     N/A     59  54  83 NE5       30.07F
G MARAIS ARPRT PTSUNNY   61  54  77 SE7       30.10F
$$
MNZ029>031-032-039>041-046>048-054>057-064-251600-
   West Central Minnesota

CITY           SKY/WX    TMP DP  RH WIND       PRES   REMARKS
FERGUS FALLS   CLOUDY    73  66  78 S10       29.90F
WHEATON        CLOUDY    73  66  78 S3        29.90S
MORRIS         SUNNY     75  66  73 S12       29.89R
ALEXANDRIA     CLOUDY    72  66  81 S14       29.94R
ELBOW LAKE     CLOUDY    73  67  82 S10       29.91S
WADENA         CLOUDY    70  64  83 S10       29.94R
GLENWOOD       MOSUNNY   73  66  78 S10G16    29.94R
APPLETON       SUNNY     77  66  69 S9        29.88S
BENSON         MOSUNNY   75  66  73 S13       29.91S
ORTONVILLE     SUNNY     75  66  73 MISG      29.88S
MADISON        SUNNY     79  70  73 S5        29.88S
WILLMAR        PTSUNNY   73  66  78 S9G17     29.94R
$$
MNZ033>034-036-042>043-049>051-058-059-251600-
   Central Minnesota

CITY           SKY/WX    TMP DP  RH WIND       PRES   REMARKS
ST CLOUD       CLOUDY    71  65  81 S16G24    29.97R
SAUK CENTRE    CLOUDY    71  65  83 S9        29.94S
PAYNESVILLE    CLOUDY    73  66  78 S10G20    29.96R
AITKIN         CLOUDY    70  63  78 S10       29.95F
PINE RIVER     CLOUDY    70  63  78 S9        29.99R
BRAINERD       CLOUDY    70  64  81 S9        29.96S
STAPLES        CLOUDY    70  63  78 S7        29.95R
LONG PRAIRIE   CLOUDY    68  64  88 SE10      29.95R
LITTLE FALLS   CLOUDY    70  63  78 SE10      29.96R
LITCHFIELD     PTSUNNY   73  66  78 SE8G18    29.96R
BUFFALO        MOSUNNY   73  62  69 S14G23    29.99R
MAPLE LAKE     CLOUDY    71  65  81 S10G20    29.99R
HUTCHINSON     CLOUDY    73  67  81 SE14G20   29.97R
$$
MNZ037-044-045-052-053-251600-
   East Central Minnesota

CITY           SKY/WX    TMP DP  RH WIND       PRES   REMARKS
PRINCETON      PTSUNNY   73  66  78 S14       29.98R
MORA           PTSUNNY   70  63  78 S16       30.02R
CAMBRIDGE      PTSUNNY   73  61  64 SE9G16    29.98R
RUSH CITY      RAIN      69  63  80 S14G23    30.01R
MOOSE LAKE     PTSUNNY   70  61  73 CALM      29.98S
HINCKLEY       PTSUNNY   70  64  83 S14       30.01R
CLOQUET        CLOUDY    70  61  73 SE8       30.02R
MCGREGOR       PTSUNNY   70  63  78 S12       29.98F
$$
MNZ071>073-080-081-089-090-097-098-251600-
   Southwest Minnesota

CITY           SKY/WX    TMP DP  RH WIND       PRES   REMARKS
MONTEVIDEO     SUNNY     79  70  73 SW8       29.89R
GRANITE FALLS  SUNNY     78  70  76 S9        29.91R
CANBY          MOSUNNY   81  67  62 CALM      29.90R
MARSHALL       SUNNY     80  69  69 SW15G24   29.88F
REDWOOD FALLS  SUNNY     76  67  73 S15       29.90F
OLIVIA         MOSUNNY   73  66  78 S10       29.92R
PIPESTONE      SUNNY     79  70  73 SW18G25   29.92S
WINDOM         SUNNY     77  64  65 S17G26    29.93F
WORTHINGTON    SUNNY     77  67  71 S21G28    29.95F
JACKSON        PTSUNNY   75  64  69 S22G28    29.97F
TRACY          SUNNY     77  69  77 S22G28    29.90R
SLAYTON        SUNNY     75  66  73 S18G30    29.93F HAZE
$$
MNZ065>067-074>077-082>085-091>093-251600-
   South Central Minnesota

CITY           SKY/WX    TMP DP  RH WIND       PRES   REMARKS
MANKATO        CLOUDY    71  65  81 SE23      29.99F
NEW ULM        CLOUDY    73  64  73 SE15      29.95R
ST JAMES       SUNNY     73  66  78 SE17G25   29.96R
FAIRMONT       SUNNY     75  67  76 S21       29.98F
GLENCOE        CLOUDY    71  67  85 SE17G23   29.97R
FARIBAULT      CLOUDY    68  64  88 SE20G26   30.03F
OWATONNA       CLOUDY    66  63  88 E16       30.06F
WASECA         CLOUDY    68  61  77 SE13G21   30.06S
ALBERT LEA     CLOUDY    70  64  83 SE10      30.06R
$$
MNZ078>079-086>088-094>096-251600-
   Southeast Minnesota

CITY           SKY/WX    TMP DP  RH WIND       PRES   REMARKS
ROCHESTER      TSTM      62  62 100 S14       30.12F
RED WING       RAIN      66  61  82 SE10G16   30.04F
STANTON        CLOUDY    68  63  83 SE21G26   30.01S
DODGE CENTER   CLOUDY    64  61  88 SE12G18   30.10F
WINONA         CLOUDY    63  61  94 SW5       30.13R
AUSTIN         CLOUDY    64  61  88 E10       30.11R
PRESTON        TSTM      61  59  92 N3        30.18R VSB 1
$$
ABBREVIATIONS USED IN REMARKS
   TC - TEMPERATURES IN CELSIUS
  WCI - WIND CHILL INDEX
   HX - HEAT INDEX
  VSB - VISIBILITY
$$




USA.gov is the U.S. government's official web portal to all federal, state and local government web resources and services.